{"data":{"norad_id":67930,"epoch":"2026-09-19T14:43:59.239776Z","epoch_age_seconds":139764,"freshness":"FRESH","line1":"1 67930U 26036AC  26262.61388009  .00013635  00000+0  50391-3 0  9993","line2":"2 67930  43.0008 229.7768 0000470  26.4261 333.6614 15.27591058 33381","mean_motion":15.27591058,"eccentricity":4.7e-5,"inclination_deg":43.0008,"raan_deg":229.7768,"arg_perigee_deg":26.4261,"mean_anomaly_deg":333.6614,"bstar":0.00050391,"rev_number":3338,"period_min":94.266066330954,"perigee_km":482.69351041902,"apogee_km":483.33845879958,"semimajor_km":6861.1529846093,"source":"CELESTRAK","updated_at":"2026-09-20T09:00:43.706147Z"}}